Location: Tuebingen alte Sternwarte
(48.5376°N, 9.0555°E)
Time: 10:54:54
(UTC+02:00)

OTV 5 (USA 277) - Visible Passes

Search period start: 19 June 2018 00:00
Search period end: 29 June 2018 00:00
Orbit: 313 x 320 km, 54.5° (Epoch: 18 June)

Date Brightness Start Highest point End Pass type
(mag) Time Alt. Az. Time Alt. Az. Time Alt. Az.
19 Jun ? 00:30:31 10° WNW 00:32:45 22° N 00:34:59 10° NE visible
19 Jun ? 02:05:08 10° NW 02:07:36 30° NNE 02:10:03 10° E visible
19 Jun ? 03:39:22 10° WNW 03:42:02 54° SW 03:44:42 10° SE visible
19 Jun ? 23:10:08 10° W 23:12:36 32° NNW 23:15:06 10° NE visible
20 Jun ? 00:45:14 10° NW 00:47:27 22° N 00:49:40 10° ENE visible
20 Jun ? 02:19:33 10° NW 02:22:11 47° NNE 02:24:50 10° E visible
20 Jun ? 03:54:06 10° W 03:56:22 23° SW 03:58:37 10° SSE visible
20 Jun ? 23:24:57 10° WNW 23:27:15 24° N 23:29:34 10° NE visible
21 Jun ? 00:59:47 10° NW 01:02:08 25° NNE 01:04:29 10° ENE visible
21 Jun ? 02:33:59 10° WNW 02:36:42 85° SSW 02:37:41 34° SE visible
21 Jun ? 23:39:45 10° NW 23:41:57 22° N 23:44:10 10° NE visible
22 Jun ? 01:14:13 10° NW 01:16:46 36° NNE 01:18:52 13° E visible
22 Jun ? 02:48:33 10° WNW 02:49:38 20° W 02:49:38 20° W visible
22 Jun ? 22:19:24 10° WNW 22:21:47 27° NNW 22:24:11 10° NE visible
22 Jun ? 23:54:23 10° NW 23:56:39 23° N 23:58:55 10° ENE visible
23 Jun ? 01:28:37 10° WNW 01:31:19 65° NNE 01:31:35 59° ENE visible
23 Jun ? 22:34:14 10° WNW 22:36:28 22° N 22:38:42 10° NE visible
24 Jun ? 00:08:52 10° NW 00:11:19 29° NNE 00:13:45 10° E visible
24 Jun ? 01:43:06 10° WNW 01:44:38 29° W 01:44:38 29° W visible
24 Jun ? 22:48:57 10° NW 22:51:10 22° N 22:53:23 10° ENE visible
25 Jun ? 00:23:17 10° NW 00:25:55 46° NNE 00:27:01 27° E visible
25 Jun ? 01:57:49 10° W 01:57:50 10° W 01:57:50 10° W visible
25 Jun ? 23:03:30 10° NW 23:05:51 25° N 23:08:11 10° ENE visible
26 Jun ? 00:37:42 10° WNW 00:40:21 83° W 00:40:21 83° W visible
26 Jun ? 23:17:57 10° NW 23:20:29 35° NNE 23:22:55 11° E visible
27 Jun ? 00:52:17 10° WNW 00:53:46 25° W 00:53:46 25° W visible
27 Jun ? 23:32:21 10° WNW 23:35:03 64° NNE 23:36:23 25° ESE visible
28 Jun ? 22:12:36 10° NW 22:15:02 29° NNE 22:17:28 10° E visible
28 Jun ? 23:46:50 10° WNW 23:49:29 57° SW 23:49:55 48° S visible
